TimeEDT,TemperatureF,Dew PointF,Humidity,Sea Level PressureIn,VisibilityMPH,Wind Direction,Wind SpeedMPH,Gust SpeedMPH,PrecipitationIn,Events,Conditions,WindDirDegrees,DateUTC
12:54 AM,36.0,35.1,97,29.90,-9999.0,North,-9999.0,-,N/A,,Unknown,0,2013-04-14 04:54:00
1:54 AM,36.0,35.1,97,29.89,-9999.0,North,-9999.0,-,N/A,,Unknown,0,2013-04-14 05:54:00
2:54 AM,35.1,34.0,96,29.88,-9999.0,North,-9999.0,-,N/A,,Unknown,0,2013-04-14 06:54:00
3:54 AM,34.0,33.1,96,29.88,-9999.0,North,-9999.0,-,N/A,,Unknown,0,2013-04-14 07:54:00
4:54 AM,34.0,33.1,96,29.88,-9999.0,North,-9999.0,-,N/A,,Unknown,0,2013-04-14 08:54:00
6:54 AM,33.1,33.1,100,29.91,-9999.0,North,-9999.0,-,N/A,,Unknown,0,2013-04-14 10:54:00
7:54 AM,34.0,34.0,100,29.94,-9999.0,North,-9999.0,-,N/A,,Unknown,0,2013-04-14 11:54:00
8:54 AM,36.0,35.1,97,29.95,-9999.0,North,-9999.0,-,N/A,,Unknown,0,2013-04-14 12:54:00
9:54 AM,36.0,35.1,97,29.96,-9999.0,North,-9999.0,-,0.03,,Unknown,0,2013-04-14 13:54:00
10:54 AM,41.0,35.1,79,29.96,-9999.0,North,-9999.0,-,N/A,,Unknown,0,2013-04-14 14:54:00
11:54 AM,39.9,33.1,77,29.98,-9999.0,North,-9999.0,-,N/A,,Unknown,0,2013-04-14 15:54:00
1:54 PM,39.9,34.0,79,30.00,-9999.0,North,-9999.0,-,N/A,,Unknown,0,2013-04-14 17:54:00
2:54 PM,46.0,30.0,54,30.00,-9999.0,North,-9999.0,-,N/A,,Unknown,0,2013-04-14 18:54:00
3:54 PM,46.0,28.0,50,30.02,-9999.0,North,-9999.0,-,N/A,,Unknown,0,2013-04-14 19:54:00
4:54 PM,44.1,30.9,60,30.05,-9999.0,North,-9999.0,-,N/A,,Unknown,0,2013-04-14 20:54:00
5:54 PM,44.1,27.0,51,30.09,-9999.0,North,-9999.0,-,N/A,,Unknown,0,2013-04-14 21:54:00
6:54 PM,42.1,28.9,60,30.11,-9999.0,North,-9999.0,-,N/A,,Unknown,0,2013-04-14 22:54:00
7:54 PM,41.0,28.0,60,30.14,-9999.0,North,-9999.0,-,N/A,,Unknown,0,2013-04-14 23:54:00
8:54 PM,37.9,30.0,73,30.18,-9999.0,North,-9999.0,-,N/A,,Unknown,0,2013-04-15 00:54:00
9:54 PM,34.0,28.9,82,30.20,-9999.0,North,-9999.0,-,N/A,,Unknown,0,2013-04-15 01:54:00
10:54 PM,30.9,28.0,89,30.20,-9999.0,North,-9999.0,-,N/A,,Unknown,0,2013-04-15 02:54:00
11:54 PM,30.0,28.0,92,30.22,-9999.0,North,-9999.0,-,N/A,,Unknown,0,2013-04-15 03:54:00